Project,Study,Ord_Occ,Event_Num,Cast_ID,Date_Time_UTC,Date_Time_PST,Lat_Dec,Lon_Dec,Sta_ID,Line,Sta,Depth,Pressure,PrQ,Temp1,Temp1Q,Temp2,Temp2Q,TempAve,Salt1,Salt1Q,Salt1_Corr,Salt2,Salt2Q,Salt2_Corr,SaltAve_Corr,Ox1,Ox1Q,Ox1_CruiseCorr,Ox1_StaCorr,Ox2,Ox2Q,Ox2_CruiseCorr,Ox2_StaCorr,OxAve_StaCorr,Ox1uM,Ox1uM_CruiseCorr,Ox1uM_StaCorr,Ox2uM,Ox2uM_CruiseCorr,Ox2uM_StaCorr,OxAveuM_StaCorr,FluorV,FluorQ,EstChl_CruiseCorr,EstChl_StaCorr,ISUSV,ISUSQ,EstNO3_CruiseCorr,EstNO3_StaCorr,SigThetaTS1,SigThetaTS1Q,SigThetaTS2,SigThetaTS2Q,BAT,XMiss,TransQ,pH,pHQ,SPAR,SPARQ,PAR,PARQ,PoT1,PoT2,DynHt,SVA,OxSat1,OxSat2,BTL_Depth,BTL_Temp,SaltB,OxB,OxBuM,Chl-a,Phaeo,NO3,NO2,NH4,PO4,SIL
CalCOFI,2101RL,027,,2101_027u,22-Jan-2021 13:46:52,22-Jan-2021 05:46:52,33.17906,-118.38984,090.0 037.0,090.0,037.0,517.000,521.335,,6.2385,,6.2394,,6.2390,34.3130,,34.3188,34.3095,,34.3115,34.3152,0.2886,,0.3019,0.3104,0.2940,,0.3103,0.3192,0.3148,12.552,13.3996,25.9236,12.784,14.4104,25.7241,25.8239,0.0326,,,, ,, , ,26.9853,,26.9824,,0.6940,84.0727,,,,3.6947E+00,,1.0000E-12,,6.1921,6.1930,0.8905,113.784,4.182,4.259,,,,,,,,,,,,
CalCOFI,2101RL,027,,2101_027u,22-Jan-2021 13:46:54,22-Jan-2021 05:46:54,33.17906,-118.38984,090.0 037.0,090.0,037.0,516.000,520.325,,6.2420,,6.2423,,6.2422,34.3124,,34.3182,34.3093,,34.3113,34.3148,0.2943,,0.3079,0.3163,0.2959,,0.3123,0.3212,0.3188,12.799,13.6582,26.1205,12.868,14.6851,25.7925,25.9565,0.0324,,,, ,, , ,26.9844,,26.9818,,0.6945,84.0618,,,,3.6947E+00,,1.0000E-12,,6.1956,6.1960,0.8905,113.860,4.265,4.288,,,,,,,,,,,,
CalCOFI,2101RL,027,,2101_027u,22-Jan-2021 13:47:19,22-Jan-2021 05:47:19,33.17905,-118.38986,090.0 037.0,090.0,037.0,515.000,519.316,,6.2422,,6.2436,,6.2429,34.3126,,34.3184,34.3090,,34.3110,34.3147,0.2900,,0.3034,0.3118,0.2948,,0.3111,0.3200,0.3159,12.613,13.4635,25.9722,12.819,14.4783,25.7526,25.8624,0.0326,,,, ,, , ,26.9844,,26.9814,,0.6940,84.0721,,,,3.5490E+00,,1.0000E-12,,6.1959,6.1973,0.8935,113.841,4.203,4.271,515,,34.3051,0.300,13.07,,,,,,,
CalCOFI,2101RL,027,,2101_027u,22-Jan-2021 13:47:40,22-Jan-2021 05:47:40,33.17900,-118.38988,090.0 037.0,090.0,037.0,514.000,518.306,,6.2500,,6.2519,,6.2510,34.3120,,34.3178,34.3084,,34.3104,34.3141,0.2935,,0.3071,0.3155,0.2923,,0.3085,0.3174,0.3165,12.765,13.6226,26.0934,12.713,14.6473,25.6664,25.8799,0.0326,,,, ,, , ,26.9829,,26.9799,,0.6947,84.0572,,,,3.6933E+00,,1.0000E-12,,6.2038,6.2057,0.8956,113.975,4.254,4.237,,,,,,,,,,,,
CalCOFI,2101RL,027,,2101_027u,22-Jan-2021 13:47:42,22-Jan-2021 05:47:42,33.17900,-118.38988,090.0 037.0,090.0,037.0,513.000,517.296,,6.2575,,6.2543,,6.2559,34.3114,,34.3172,34.3085,,34.3105,34.3139,0.2935,,0.3071,0.3155,0.3004,,0.3171,0.3259,0.3207,12.763,13.6205,26.0918,13.063,14.6451,25.9511,26.0215,0.0322,,,, ,, , ,26.9815,,26.9796,,0.6948,84.0541,,,,3.6947E+00,,1.0000E-12,,6.2114,6.2082,0.8956,114.102,4.254,4.354,,,,,,,,,,,,
CalCOFI,2101RL,027,,2101_027u,22-Jan-2021 13:47:44,22-Jan-2021 05:47:44,33.17899,-118.38987,090.0 037.0,090.0,037.0,512.000,516.287,,6.2619,,6.2658,,6.2639,34.3115,,34.3173,34.3076,,34.3096,34.3135,0.2998,,0.3137,0.3221,0.2921,,0.3082,0.3172,0.3197,13.039,13.9094,26.3119,12.702,14.9520,25.6574,25.9847,0.0327,,,, ,, , ,26.9810,,26.9775,,0.6950,84.0497,,,,3.6947E+00,,1.0000E-12,,6.2159,6.2197,0.8956,114.144,4.346,4.234,,,,,,,,,,,,
CalCOFI,2101RL,027,,2101_027u,22-Jan-2021 13:47:45,22-Jan-2021 05:47:45,33.17898,-118.38986,090.0 037.0,090.0,037.0,511.000,515.277,,6.2736,,6.2703,,6.2720,34.3110,,34.3168,34.3078,,34.3098,34.3133,0.3060,,0.3202,0.3285,0.3045,,0.3214,0.3303,0.3294,13.307,14.1900,26.5256,13.244,15.2500,26.0983,26.3120,0.0335,,,, ,, , ,26.9791,,26.9770,,0.6953,84.0437,,,,3.6947E+00,,1.0000E-12,,6.2276,6.2243,0.8956,114.321,4.437,4.416,,,,,,,,,,,,
CalCOFI,2101RL,027,,2101_027u,22-Jan-2021 13:47:46,22-Jan-2021 05:47:46,33.17898,-118.38986,090.0 037.0,090.0,037.0,510.000,514.267,,6.2926,,6.2952,,6.2939,34.3092,,34.3150,34.3057,,34.3077,34.3114,0.3023,,0.3163,0.3247,0.3087,,0.3259,0.3347,0.3297,13.145,14.0204,26.3964,13.426,15.0699,26.2464,26.3214,0.0333,,,, ,, , ,26.9752,,26.9721,,0.6953,84.0442,,,,3.6947E+00,,1.0000E-12,,6.2466,6.2492,0.8956,114.693,4.385,4.479,,,,,,,,,,,,
CalCOFI,2101RL,027,,2101_027u,22-Jan-2021 13:47:47,22-Jan-2021 05:47:47,33.17900,-118.38986,090.0 037.0,090.0,037.0,509.000,513.258,,6.2974,,6.2963,,6.2969,34.3089,,34.3147,34.3057,,34.3077,34.3112,0.3012,,0.3151,0.3235,0.3128,,0.3302,0.3391,0.3313,13.100,13.9733,26.3605,13.601,15.0198,26.3888,26.3747,0.0330,,,, ,, , ,26.9744,,26.9719,,0.6946,84.0597,,,,3.6947E+00,,1.0000E-12,,6.2515,6.2504,0.8956,114.766,4.370,4.537,,,,,,,,,,,,
CalCOFI,2101RL,027,,2101_027u,22-Jan-2021 13:47:49,22-Jan-2021 05:47:49,33.17900,-118.38986,090.0 037.0,090.0,037.0,508.000,512.248,,6.3010,,6.3010,,6.3010,34.3086,,34.3144,34.3053,,34.3073,34.3109,0.3051,,0.3192,0.3276,0.3032,,0.3200,0.3289,0.3283,13.269,14.1502,26.4953,13.186,15.2077,26.0512,26.2733,0.0330,,,, ,, , ,26.9737,,26.9710,,0.6943,84.0657,,,,3.2207E+00,,1.0000E-12,,6.2552,6.2552,0.8956,114.822,4.427,4.400,,,,,,,,,,,,
CalCOFI,2101RL,027,,2101_027u,22-Jan-2021 13:47:50,22-Jan-2021 05:47:50,33.17900,-118.38987,090.0 037.0,090.0,037.0,507.000,511.239,,6.3057,,6.3050,,6.3054,34.3084,,34.3142,34.3049,,34.3069,34.3106,0.3075,,0.3217,0.3301,0.3079,,0.3250,0.3339,0.3320,13.371,14.2570,26.5766,13.389,15.3212,26.2163,26.3965,0.0323,,,, ,, , ,26.9728,,26.9702,,0.6948,84.0541,,,,3.3560E+00,,1.0000E-12,,6.2600,6.2593,0.8956,114.892,4.462,4.468,,,,,,,,,,,,
CalCOFI,2101RL,027,,2101_027u,22-Jan-2021 13:47:51,22-Jan-2021 05:47:51,33.17900,-118.38988,090.0 037.0,090.0,037.0,506.000,510.229,,6.3172,,6.3179,,6.3176,34.3076,,34.3134,34.3042,,34.3062,34.3098,0.3088,,0.3231,0.3315,0.3047,,0.3216,0.3305,0.3310,13.431,14.3198,26.6244,13.249,15.3879,26.1024,26.3634,0.0334,,,, ,, , ,26.9707,,26.9680,,0.6946,84.0599,,,,3.6988E+00,,1.0000E-12,,6.2715,6.2722,0.8956,115.088,4.483,4.422,,,,,,,,,,,,
CalCOFI,2101RL,027,,2101_027u,22-Jan-2021 13:47:52,22-Jan-2021 05:47:52,33.17900,-118.38988,090.0 037.0,090.0,037.0,505.000,509.219,,6.3277,,6.3277,,6.3277,34.3071,,34.3129,34.3037,,34.3057,34.3093,0.3124,,0.3269,0.3352,0.3047,,0.3216,0.3305,0.3329,13.584,14.4799,26.7464,13.250,15.5580,26.1032,26.4248,0.0315,,,, ,, , ,26.9690,,26.9663,,0.6947,84.0579,,,,3.6947E+00,,1.0000E-12,,6.2821,6.2821,0.8956,115.249,4.535,4.424,,,,,,,,,,,,
CalCOFI,2101RL,027,,2101_027u,22-Jan-2021 13:47:53,22-Jan-2021 05:47:53,33.17899,-118.38988,090.0 037.0,090.0,037.0,504.000,508.210,,6.3340,,6.3304,,6.3322,34.3066,,34.3124,34.3036,,34.3056,34.3090,0.3106,,0.3250,0.3334,0.3128,,0.3302,0.3391,0.3363,13.508,14.4004,26.6858,13.604,15.4735,26.3912,26.5385,0.0332,,,, ,, , ,26.9678,,26.9659,,0.6943,84.0657,,,,3.6947E+00,,1.0000E-12,,6.2884,6.2848,0.8956,115.356,4.510,4.542,,,,,,,,,,,,
CalCOFI,2101RL,027,,2101_027u,22-Jan-2021 13:47:54,22-Jan-2021 05:47:54,33.17898,-118.38988,090.0 037.0,090.0,037.0,503.000,507.200,,6.3380,,6.3342,,6.3361,34.3063,,34.3121,34.3030,,34.3050,34.3086,0.3190,,0.3338,0.3421,0.3150,,0.3326,0.3414,0.3418,13.873,14.7825,26.9769,13.697,15.8794,26.4669,26.7219,0.0323,,,, ,, , ,26.9670,,26.9649,,0.6943,84.0657,,,,3.3540E+00,,1.0000E-12,,6.2925,6.2887,0.8956,115.424,4.632,4.573,,,,,,,,,,,,
CalCOFI,2101RL,027,,2101_027u,22-Jan-2021 13:47:55,22-Jan-2021 05:47:55,33.17898,-118.38988,090.0 037.0,090.0,037.0,502.000,506.191,,6.3499,,6.3446,,6.3473,34.3052,,34.3110,34.3023,,34.3043,34.3077,0.3205,,0.3353,0.3437,0.3236,,0.3417,0.3505,0.3471,13.936,14.8484,27.0271,14.074,15.9495,26.7735,26.9003,0.0330,,,, ,, , ,26.9646,,26.9630,,0.6943,84.0657,,,,3.6956E+00,,1.0000E-12,,6.3045,6.2992,0.8956,115.646,4.655,4.700,,,,,,,,,,,,
CalCOFI,2101RL,027,,2101_027u,22-Jan-2021 13:47:56,22-Jan-2021 05:47:56,33.17898,-118.38988,090.0 037.0,090.0,037.0,501.000,505.181,,6.3639,,6.3635,,6.3637,34.3042,,34.3100,34.3007,,34.3027,34.3064,0.3193,,0.3341,0.3424,0.3197,,0.3376,0.3464,0.3444,13.886,14.7961,26.9872,13.904,15.8939,26.6353,26.8113,0.0324,,,, ,, , ,26.9619,,26.9593,,0.6943,84.0657,,,,3.4102E+00,,1.0000E-12,,6.3185,6.3181,0.8956,115.897,4.640,4.645,,,,,,,,,,,,
CalCOFI,2101RL,027,,2101_027u,22-Jan-2021 13:47:57,22-Jan-2021 05:47:57,33.17896,-118.38988,090.0 037.0,090.0,037.0,500.000,504.172,,6.3712,,6.3708,,6.3710,34.3039,,34.3097,34.3006,,34.3026,34.3062,0.3215,,0.3364,0.3447,0.3190,,0.3368,0.3456,0.3452,13.982,14.8966,27.0638,13.870,16.0006,26.6076,26.8357,0.0322,,,, ,, , ,26.9608,,26.9582,,0.6940,84.0713,,,,3.6195E+00,,1.0000E-12,,6.3259,6.3254,0.8956,116.000,4.673,4.635,,,,,,,,,,,,
CalCOFI,2101RL,027,,2101_027u,22-Jan-2021 13:47:58,22-Jan-2021 05:47:58,33.17896,-118.38988,090.0 037.0,090.0,037.0,499.000,503.162,,6.3788,,6.3775,,6.3782,34.3034,,34.3092,34.3003,,34.3023,34.3058,0.3216,,0.3365,0.3448,0.3162,,0.3338,0.3427,0.3438,13.987,14.9018,27.0678,13.750,16.0062,26.5100,26.7889,0.0327,,,, ,, , ,26.9593,,26.9571,,0.6944,84.0628,,,,3.6948E+00,,1.0000E-12,,6.3335,6.3323,0.8956,116.131,4.675,4.595,,,,,,,,,,,,
CalCOFI,2101RL,027,,2101_027u,22-Jan-2021 13:47:59,22-Jan-2021 05:47:59,33.17896,-118.38988,090.0 037.0,090.0,037.0,498.000,502.152,,6.3852,,6.3883,,6.3868,34.3032,,34.3090,34.2996,,34.3016,34.3053,0.3259,,0.3410,0.3493,0.3273,,0.3456,0.3544,0.3519,14.174,15.0975,27.2169,14.234,16.2141,26.9037,27.0603,0.0327,,,, ,, , ,26.9584,,26.9551,,0.6945,84.0610,,,,3.6207E+00,,1.0000E-12,,6.3400,6.3431,0.8956,116.214,4.738,4.758,,,,,,,,,,,,
CalCOFI,2101RL,027,,2101_027u,22-Jan-2021 13:48:01,22-Jan-2021 05:48:01,33.17894,-118.38986,090.0 037.0,090.0,037.0,497.000,501.143,,6.3962,,6.3968,,6.3965,34.3024,,34.3082,34.2990,,34.3010,34.3046,0.3230,,0.3380,0.3463,0.3232,,0.3413,0.3501,0.3482,14.045,14.9625,27.1140,14.057,16.0707,26.7597,26.9369,0.0329,,,, ,, , ,26.9563,,26.9535,,0.6948,84.0541,,,,3.6286E+00,,1.0000E-12,,6.3511,6.3517,0.8956,116.405,4.696,4.700,,,,,,,,,,,,
CalCOFI,2101RL,027,,2101_027u,22-Jan-2021 13:48:02,22-Jan-2021 05:48:02,33.17894,-118.38986,090.0 037.0,090.0,037.0,496.000,500.133,,6.4017,,6.4001,,6.4009,34.3020,,34.3078,34.2987,,34.3007,34.3043,0.3276,,0.3428,0.3511,0.3290,,0.3474,0.3562,0.3537,14.248,15.1750,27.2759,14.306,16.2964,26.9623,27.1191,0.0326,,,, ,, , ,26.9552,,26.9529,,0.6945,84.0619,,,,3.6944E+00,,1.0000E-12,,6.3567,6.3551,0.8956,116.497,4.765,4.784,,,,,,,,,,,,
CalCOFI,2101RL,027,,2101_027u,22-Jan-2021 13:48:03,22-Jan-2021 05:48:03,33.17894,-118.38987,090.0 037.0,090.0,037.0,495.000,499.124,,6.4082,,6.4053,,6.4068,34.3012,,34.3070,34.2983,,34.3003,34.3037,0.3285,,0.3437,0.3520,0.3231,,0.3412,0.3500,0.3510,14.287,15.2158,27.3070,14.051,16.3398,26.7548,27.0309,0.0320,,,, ,, , ,26.9538,,26.9519,,0.6943,84.0658,,,,3.6947E+00,,1.0000E-12,,6.3632,6.3603,0.8956,116.626,4.778,4.699,,,,,,,,,,,,
CalCOFI,2101RL,027,,2101_027u,22-Jan-2021 13:48:04,22-Jan-2021 05:48:04,33.17894,-118.38988,090.0 037.0,090.0,037.0,494.000,498.114,,6.4111,,6.4122,,6.4117,34.3008,,34.3066,34.2976,,34.2996,34.3031,0.3318,,0.3472,0.3555,0.3268,,0.3451,0.3539,0.3547,14.432,15.3676,27.4226,14.211,16.5010,26.8850,27.1538,0.0324,,,, ,, , ,26.9531,,26.9503,,0.6943,84.0657,,,,3.6947E+00,,1.0000E-12,,6.3661,6.3673,0.8956,116.683,4.827,4.754,,,,,,,,,,,,
CalCOFI,2101RL,027,,2101_027u,22-Jan-2021 13:48:05,22-Jan-2021 05:48:05,33.17894,-118.38988,090.0 037.0,090.0,037.0,493.000,497.105,,6.4126,,6.4138,,6.4132,34.3007,,34.3065,34.2972,,34.2992,34.3029,0.3303,,0.3456,0.3539,0.3239,,0.3420,0.3508,0.3524,14.365,15.2975,27.3692,14.083,16.4265,26.7809,27.0751,0.0320,,,, ,, , ,26.9528,,26.9499,,0.6944,84.0637,,,,3.6947E+00,,1.0000E-12,,6.3678,6.3690,0.8956,116.696,4.805,4.711,,,,,,,,,,,,
CalCOFI,2101RL,027,,2101_027u,22-Jan-2021 13:48:06,22-Jan-2021 05:48:06,33.17894,-118.38988,090.0 037.0,090.0,037.0,492.000,496.095,,6.4139,,6.4123,,6.4131,34.3005,,34.3063,34.2972,,34.2992,34.3028,0.3305,,0.3458,0.3541,0.3277,,0.3461,0.3548,0.3545,14.373,15.3059,27.3755,14.250,16.4354,26.9167,27.1461,0.0326,,,, ,, , ,26.9524,,26.9500,,0.6943,84.0647,,,,3.6168E+00,,1.0000E-12,,6.3692,6.3675,0.8956,116.720,4.808,4.766,,,,,,,,,,,,
CalCOFI,2101RL,027,,2101_027u,22-Jan-2021 13:48:07,22-Jan-2021 05:48:07,33.17892,-118.38986,090.0 037.0,090.0,037.0,491.000,495.086,,6.4143,,6.4155,,6.4149,34.3005,,34.3063,34.2969,,34.2989,34.3026,0.3290,,0.3442,0.3526,0.3350,,0.3538,0.3626,0.3576,14.308,15.2378,27.3237,14.567,16.3631,27.1746,27.2492,0.0318,,,, ,, , ,26.9523,,26.9494,,0.6944,84.0637,,,,3.6144E+00,,1.0000E-12,,6.3696,6.3709,0.8956,116.711,4.786,4.873,,,,,,,,,,,,
CalCOFI,2101RL,027,,2101_027u,22-Jan-2021 13:48:08,22-Jan-2021 05:48:08,33.17892,-118.38986,090.0 037.0,090.0,037.0,490.000,494.076,,6.4167,,6.4167,,6.4167,34.3002,,34.3060,34.2969,,34.2989,34.3025,0.3307,,0.3460,0.3543,0.3332,,0.3519,0.3607,0.3575,14.380,15.3132,27.3811,14.491,16.4432,27.1128,27.2470,0.0313,,,, ,, , ,26.9518,,26.9492,,0.6943,84.0657,,,,3.6944E+00,,1.0000E-12,,6.3722,6.3722,0.8956,116.750,4.811,4.848,,,,,,,,,,,,
CalCOFI,2101RL,027,,2101_027u,22-Jan-2021 13:48:09,22-Jan-2021 05:48:09,33.17892,-118.38986,090.0 037.0,090.0,037.0,489.000,493.067,,6.4215,,6.4214,,6.4215,34.2999,,34.3057,34.2964,,34.2984,34.3021,0.3365,,0.3521,0.3604,0.3286,,0.3470,0.3558,0.3581,14.635,15.5801,27.5845,14.292,16.7268,26.9509,27.2677,0.0326,,,, ,, , ,26.9509,,26.9482,,0.6946,84.0585,,,,3.0383E+00,,1.0000E-12,,6.3770,6.3769,0.8956,116.824,4.896,4.781,,,,,,,,,,,,
CalCOFI,2101RL,027,,2101_027u,22-Jan-2021 13:48:10,22-Jan-2021 05:48:10,33.17891,-118.38987,090.0 037.0,090.0,037.0,488.000,492.057,,6.4265,,6.4275,,6.4270,34.2995,,34.3053,34.2961,,34.2981,34.3017,0.3352,,0.3507,0.3590,0.3298,,0.3483,0.3571,0.3581,14.576,15.5184,27.5374,14.343,16.6612,26.9924,27.2649,0.0326,,,, ,, , ,26.9499,,26.9471,,0.6943,84.0657,,,,3.2554E+00,,1.0000E-12,,6.3821,6.3831,0.8956,116.909,4.877,4.799,,,,,,,,,,,,
CalCOFI,2101RL,027,,2101_027u,22-Jan-2021 13:48:11,22-Jan-2021 05:48:11,33.17890,-118.38988,090.0 037.0,090.0,037.0,487.000,491.048,,6.4292,,6.4298,,6.4295,34.2993,,34.3051,34.2959,,34.2979,34.3015,0.3326,,0.3480,0.3563,0.3376,,0.3566,0.3653,0.3608,14.464,15.4011,27.4481,14.683,16.5366,27.2690,27.3586,0.0323,,,, ,, , ,26.9494,,26.9467,,0.6942,84.0681,,,,2.9554E+00,,1.0000E-12,,6.3849,6.3854,0.8956,116.947,4.840,4.913,,,,,,,,,,,,
CalCOFI,2101RL,027,,2101_027u,22-Jan-2021 13:48:11,22-Jan-2021 05:48:11,33.17890,-118.38988,090.0 037.0,090.0,037.0,486.000,490.038,,6.4311,,6.4317,,6.4314,34.2991,,34.3049,34.2957,,34.2977,34.3013,0.3323,,0.3477,0.3560,0.3347,,0.3535,0.3623,0.3592,14.452,15.3886,27.4385,14.555,16.5233,27.1648,27.3017,0.0324,,,, ,, , ,26.9490,,26.9462,,0.6939,84.0750,,,,2.7293E+00,,1.0000E-12,,6.3869,6.3875,0.8956,116.970,4.836,4.870,,,,,,,,,,,,
CalCOFI,2101RL,027,,2101_027u,22-Jan-2021 13:48:13,22-Jan-2021 05:48:13,33.17890,-118.38988,090.0 037.0,090.0,037.0,485.000,489.029,,6.4329,,6.4342,,6.4336,34.2988,,34.3046,34.2953,,34.2973,34.3010,0.3328,,0.3482,0.3565,0.3370,,0.3559,0.3647,0.3606,14.474,15.4116,27.4561,14.655,16.5477,27.2462,27.3512,0.0329,,,, ,, , ,26.9485,,26.9456,,0.6939,84.0744,,,,3.4798E+00,,1.0000E-12,,6.3888,6.3900,0.8956,117.003,4.844,4.904,,,,,,,,,,,,
CalCOFI,2101RL,027,,2101_027u,22-Jan-2021 13:48:14,22-Jan-2021 05:48:14,33.17890,-118.38988,090.0 037.0,090.0,037.0,484.000,488.019,,6.4364,,6.4366,,6.4365,34.2984,,34.3042,34.2952,,34.2972,34.3007,0.3389,,0.3546,0.3629,0.3331,,0.3518,0.3606,0.3618,14.737,15.6869,27.6658,14.484,16.8402,27.1071,27.3865,0.0328,,,, ,, , ,26.9477,,26.9451,,0.6942,84.0681,,,,3.5155E+00,,1.0000E-12,,6.3924,6.3925,0.8956,117.064,4.932,4.847,,,,,,,,,,,,
CalCOFI,2101RL,027,,2101_027u,22-Jan-2021 13:48:15,22-Jan-2021 05:48:15,33.17890,-118.38988,090.0 037.0,090.0,037.0,483.000,487.010,,6.4379,,6.4374,,6.4377,34.2984,,34.3042,34.2950,,34.2970,34.3006,0.3368,,0.3524,0.3607,0.3361,,0.3550,0.3637,0.3622,14.647,15.5927,27.5940,14.616,16.7401,27.2145,27.4043,0.0326,,,, ,, , ,26.9475,,26.9449,,0.6938,84.0766,,,,2.2506E+00,,1.0000E-12,,6.3939,6.3934,0.8956,117.072,4.902,4.891,,,,,,,,,,,,
CalCOFI,2101RL,027,,2101_027u,22-Jan-2021 13:48:17,22-Jan-2021 05:48:17,33.17889,-118.38988,090.0 037.0,090.0,037.0,482.000,486.000,,6.4418,,6.4405,,6.4412,34.2980,,34.3038,34.2948,,34.2968,34.3003,0.3357,,0.3512,0.3596,0.3386,,0.3576,0.3664,0.3630,14.598,15.5414,27.5550,14.725,16.6856,27.3031,27.4291,0.0330,,,, ,, , ,26.9467,,26.9443,,0.6937,84.0796,,,,3.0122E+00,,1.0000E-12,,6.3979,6.3966,0.8956,117.138,4.886,4.928,,,,,,,,,,,,
CalCOFI,2101RL,027,,2101_027u,22-Jan-2021 13:48:18,22-Jan-2021 05:48:18,33.17888,-118.38988,090.0 037.0,090.0,037.0,481.000,484.991,,6.4451,,6.4461,,6.4456,34.2977,,34.3035,34.2944,,34.2964,34.3000,0.3385,,0.3542,0.3625,0.3327,,0.3514,0.3601,0.3613,14.720,15.6691,27.6522,14.470,16.8213,27.0957,27.3740,0.0331,,,, ,, , ,26.9460,,26.9433,,0.6939,84.0746,,,,3.5262E+00,,1.0000E-12,,6.4013,6.4023,0.8956,117.191,4.927,4.843,,,,,,,,,,,,
CalCOFI,2101RL,027,,2101_027u,22-Jan-2021 13:48:18,22-Jan-2021 05:48:18,33.17888,-118.38988,090.0 037.0,090.0,037.0,480.000,483.981,,6.4498,,6.4508,,6.4503,34.2973,,34.3031,34.2941,,34.2961,34.2996,0.3422,,0.3580,0.3663,0.3348,,0.3536,0.3624,0.3644,14.880,15.8366,27.7798,14.561,16.9992,27.1697,27.4748,0.0320,,,, ,, , ,26.9450,,26.9424,,0.6937,84.0775,,,,3.5099E+00,,1.0000E-12,,6.4061,6.4071,0.8956,117.273,4.981,4.875,,,,,,,,,,,,
CalCOFI,2101RL,027,,2101_027u,22-Jan-2021 13:48:19,22-Jan-2021 05:48:19,33.17888,-118.38988,090.0 037.0,090.0,037.0,479.000,482.972,,6.4522,,6.4521,,6.4522,34.2972,,34.3030,34.2939,,34.2959,34.2995,0.3400,,0.3557,0.3640,0.3340,,0.3527,0.3615,0.3628,14.784,15.7361,27.7033,14.527,16.8924,27.1421,27.4227,0.0306,,,, ,, , ,26.9447,,26.9421,,0.6936,84.0801,,,,2.8828E+00,,1.0000E-12,,6.4085,6.4085,0.8956,117.299,4.949,4.863,,,,,,,,,,,,
CalCOFI,2101RL,027,,2101_027u,22-Jan-2021 13:48:20,22-Jan-2021 05:48:20,33.17888,-118.38988,090.0 037.0,090.0,037.0,478.000,481.962,,6.4533,,6.4534,,6.4534,34.2971,,34.3029,34.2939,,34.2959,34.2994,0.3421,,0.3579,0.3662,0.3380,,0.3570,0.3658,0.3660,14.878,15.8345,27.7782,14.700,16.9970,27.2828,27.5305,0.0326,,,, ,, , ,26.9444,,26.9419,,0.6937,84.0781,,,,3.6901E+00,,1.0000E-12,,6.4097,6.4099,0.8956,117.308,4.981,4.922,,,,,,,,,,,,
CalCOFI,2101RL,027,,2101_027u,22-Jan-2021 13:48:21,22-Jan-2021 05:48:21,33.17888,-118.38988,090.0 037.0,090.0,037.0,477.000,480.953,,6.4553,,6.4561,,6.4557,34.2970,,34.3028,34.2936,,34.2956,34.2992,0.3394,,0.3551,0.3634,0.3428,,0.3621,0.3708,0.3671,14.760,15.7110,27.6841,14.907,16.8658,27.4512,27.5677,0.0326,,,, ,, , ,26.9441,,26.9413,,0.6934,84.0856,,,,3.6947E+00,,1.0000E-12,,6.4118,6.4126,0.8956,117.325,4.942,4.991,,,,,,,,,,,,
CalCOFI,2101RL,027,,2101_027u,22-Jan-2021 13:48:22,22-Jan-2021 05:48:22,33.17888,-118.38988,090.0 037.0,090.0,037.0,476.000,479.943,,6.4575,,6.4570,,6.4573,34.2969,,34.3027,34.2936,,34.2956,34.2992,0.3393,,0.3550,0.3633,0.3441,,0.3635,0.3722,0.3678,14.754,15.7047,27.6793,14.965,16.8591,27.4984,27.5889,0.0323,,,, ,, , ,26.9437,,26.9412,,0.6933,84.0871,,,,3.6947E+00,,1.0000E-12,,6.4141,6.4136,0.8956,117.350,4.940,5.010,,,,,,,,,,,,
CalCOFI,2101RL,027,,2101_027u,22-Jan-2021 13:48:22,22-Jan-2021 05:48:22,33.17888,-118.38988,090.0 037.0,090.0,037.0,475.000,478.934,,6.4593,,6.4598,,6.4596,34.2967,,34.3025,34.2933,,34.2953,34.2989,0.3392,,0.3549,0.3632,0.3396,,0.3587,0.3675,0.3654,14.752,15.7026,27.6777,14.768,16.8569,27.3381,27.5079,0.0324,,,, ,, , ,26.9433,,26.9406,,0.6934,84.0844,,,,3.4633E+00,,1.0000E-12,,6.4160,6.4165,0.8956,117.374,4.940,4.945,,,,,,,,,,,,
CalCOFI,2101RL,027,,2101_027u,22-Jan-2021 13:48:24,22-Jan-2021 05:48:24,33.17886,-118.38990,090.0 037.0,090.0,037.0,474.000,477.924,,6.4610,,6.4607,,6.4609,34.2968,,34.3026,34.2933,,34.2953,34.2990,0.3424,,0.3583,0.3666,0.3391,,0.3582,0.3669,0.3668,14.890,15.8471,27.7878,14.746,17.0103,27.3202,27.5540,0.0320,,,, ,, , ,26.9431,,26.9404,,0.6932,84.0893,,,,3.5531E+00,,1.0000E-12,,6.4178,6.4175,0.8956,117.378,4.986,4.937,,,,,,,,,,,,
CalCOFI,2101RL,027,,2101_027u,22-Jan-2021 13:48:25,22-Jan-2021 05:48:25,33.17886,-118.38990,090.0 037.0,090.0,037.0,473.000,476.915,,6.4622,,6.4629,,6.4626,34.2967,,34.3025,34.2932,,34.2952,34.2989,0.3473,,0.3634,0.3717,0.3412,,0.3604,0.3691,0.3704,15.104,16.0711,27.9584,14.838,17.2483,27.3951,27.6768,0.0324,,,, ,, , ,26.9429,,26.9401,,0.6932,84.0893,,,,3.0070E+00,,1.0000E-12,,6.4191,6.4198,0.8956,117.385,5.058,4.969,,,,,,,,,,,,
CalCOFI,2101RL,027,,2101_027u,22-Jan-2021 13:48:26,22-Jan-2021 05:48:26,33.17886,-118.38990,090.0 037.0,090.0,037.0,472.000,475.906,,6.4644,,6.4643,,6.4644,34.2964,,34.3022,34.2931,,34.2951,34.2987,0.3427,,0.3586,0.3669,0.3445,,0.3639,0.3726,0.3698,14.903,15.8607,27.7981,14.980,17.0248,27.5106,27.6544,0.0334,,,, ,, , ,26.9424,,26.9397,,0.6932,84.0893,,,,3.3545E+00,,1.0000E-12,,6.4213,6.4213,0.8956,117.421,4.991,5.016,,,,,,,,,,,,
CalCOFI,2101RL,027,,2101_027u,22-Jan-2021 13:48:27,22-Jan-2021 05:48:27,33.17886,-118.38992,090.0 037.0,090.0,037.0,471.000,474.896,,6.4674,,6.4667,,6.4671,34.2962,,34.3020,34.2930,,34.2950,34.2985,0.3449,,0.3609,0.3692,0.3416,,0.3608,0.3696,0.3694,15.001,15.9632,27.8763,14.854,17.1338,27.4081,27.6422,0.0328,,,, ,, , ,26.9418,,26.9393,,0.6934,84.0842,,,,3.6327E+00,,1.0000E-12,,6.4245,6.4238,0.8956,117.463,5.024,4.975,,,,,,,,,,,,
CalCOFI,2101RL,027,,2101_027u,22-Jan-2021 13:48:28,22-Jan-2021 05:48:28,33.17886,-118.38992,090.0 037.0,090.0,037.0,470.000,473.887,,6.4785,,6.4736,,6.4761,34.2957,,34.3015,34.2926,,34.2946,34.2981,0.3507,,0.3669,0.3752,0.3468,,0.3663,0.3751,0.3752,15.253,16.2270,28.0772,15.083,17.4140,27.5944,27.8358,0.0326,,,, ,, , ,26.9399,,26.9381,,0.6938,84.0774,,,,3.6287E+00,,1.0000E-12,,6.4356,6.4308,0.8956,117.641,5.109,5.052,,,,,,,,,,,,
CalCOFI,2101RL,027,,2101_027u,22-Jan-2021 13:48:29,22-Jan-2021 05:48:29,33.17886,-118.38992,090.0 037.0,090.0,037.0,469.000,472.877,,6.4939,,6.4908,,6.4924,34.2947,,34.3005,34.2913,,34.2933,34.2969,0.3464,,0.3624,0.3707,0.3432,,0.3625,0.3713,0.3710,15.063,16.0281,27.9257,14.924,17.2027,27.4650,27.6954,0.0336,,,, ,, , ,26.9371,,26.9348,,0.6938,84.0759,,,,3.1266E+00,,1.0000E-12,,6.4511,6.4479,0.8956,117.907,5.048,5.000,,,,,,,,,,,,
CalCOFI,2101RL,027,,2101_027u,22-Jan-2021 13:48:30,22-Jan-2021 05:48:30,33.17886,-118.38994,090.0 037.0,090.0,037.0,468.000,471.868,,6.4993,,6.4997,,6.4995,34.2943,,34.3001,34.2911,,34.2931,34.2966,0.3502,,0.3664,0.3747,0.3498,,0.3695,0.3783,0.3765,15.230,16.2030,28.0589,15.213,17.3884,27.7001,27.8795,0.0328,,,, ,, , ,26.9360,,26.9335,,0.6932,84.0896,,,,3.6189E+00,,1.0000E-12,,6.4565,6.4569,0.8956,117.995,5.104,5.098,,,,,,,,,,,,
CalCOFI,2101RL,027,,2101_027u,22-Jan-2021 13:48:31,22-Jan-2021 05:48:31,33.17886,-118.38994,090.0 037.0,090.0,037.0,467.000,470.859,,6.5025,,6.5030,,6.5028,34.2943,,34.3001,34.2909,,34.2929,34.2965,0.3537,,0.3701,0.3783,0.3523,,0.3722,0.3809,0.3796,15.381,16.3610,28.1793,15.320,17.5563,27.7872,27.9833,0.0334,,,, ,, , ,26.9356,,26.9329,,0.6937,84.0781,,,,3.5974E+00,,1.0000E-12,,6.4598,6.4603,0.8956,118.024,5.155,5.134,,,,,,,,,,,,
CalCOFI,2101RL,027,,2101_027u,22-Jan-2021 13:48:32,22-Jan-2021 05:48:32,33.17886,-118.38994,090.0 037.0,090.0,037.0,466.000,469.849,,6.5041,,6.5041,,6.5041,34.2942,,34.3000,34.2909,,34.2929,34.2965,0.3507,,0.3669,0.3752,0.3529,,0.3728,0.3815,0.3784,15.253,16.2270,28.0772,15.349,17.4140,27.8108,27.9440,0.0323,,,, ,, , ,26.9353,,26.9327,,0.6932,84.0893,,,,3.5860E+00,,1.0000E-12,,6.4615,6.4615,0.8956,118.042,5.112,5.144,,,,,,,,,,,,
CalCOFI,2101RL,027,,2101_027u,22-Jan-2021 13:48:32,22-Jan-2021 05:48:32,33.17886,-118.38994,090.0 037.0,090.0,037.0,465.000,468.840,,6.5059,,6.5065,,6.5062,34.2940,,34.2998,34.2906,,34.2926,34.2962,0.3496,,0.3658,0.3741,0.3496,,0.3693,0.3780,0.3761,15.203,16.1747,28.0374,15.202,17.3584,27.6912,27.8643,0.0331,,,, ,, , ,26.9350,,26.9321,,0.6939,84.0753,,,,3.0368E+00,,1.0000E-12,,6.4634,6.4640,0.8956,118.060,5.096,5.096,,,,,,,,,,,,